Flag Weather past 2 weeks in Lahore, Pakistan

Now
70 °F

Haze.


Feels Like: 70 °F
Forecast: 54 / 75 °F
Wind: No wind

Location: Lahore Airport

Current Time: Nov 23, 2014 at 6:58:45 PM

Latest Report: Nov 23, 2014 at 6:30 PM


Visibility: 2 mi

Pressure: 29.98 "Hg

Humidity: 43%

Dew point: 46 °F

Location of LahoreLocation

Historic Weather in Lahore — Graph

°F

Lahore temperature yesterday

Maximum temperature yesterday: 75 °F (at 1:25 PM)
Minimum temperature yesterday: 50 °F (at 5:55 AM)
Average temperature yesterday: 64 °F

Past Weeks' High & Low Weather Summary

 TemperatureHumidityPressure
High82 °F (Nov 11, 2:00 PM)94% (Nov 16, 6:00 AM)30.12 "Hg (Nov 16, 6:00 AM)
Low48 °F (Nov 20, 7:00 AM)20% (Nov 13, 2:30 PM)29.89 "Hg (Nov 22, 3:00 PM)
Average66 °F58%30.01 "Hg
* Reported Nov 8 6:00 PM — Nov 23 6:00 PM, Lahore, Weather by CustomWeather, © 2014

Note: Actual official high and low records may vary slightly from our data, if they occured in-between our weather recording intervals... More about our weather records

Advertising

Lahore weather history for previous 24 hours

 ConditionsComfort  
Time TempWeatherWind HumidityBarometerVisibility
6:00 PM
Nov 23
70 °FHaze.3 mph43%29.98 "Hg2 mi
5:30 PM72 °FHaze.3 mph41%29.95 "Hg2 mi
4:30 PM75 °FHaze.5 mph31%29.98 "Hg1 mi
4:00 PM75 °FHaze.5 mph31%29.98 "Hg1 mi
3:30 PM77 °FHaze.8 mph30%29.98 "Hg1 mi
2:55 PM77 °FHaze.6 mph30%29.98 "Hg1 mi
2:30 PM77 °FHaze.6 mph30%29.98 "Hg1 mi
2:00 PM77 °FHaze.5 mph30%29.98 "Hg1 mi
1:30 PM75 °FHaze.5 mph34%30.01 "Hg1 mi
12:55 PM75 °FHaze.5 mph34%30.01 "Hg1 mi
12:25 PM73 °FHaze.6 mph38%30.04 "Hg1 mi
11:55 AM72 °FHaze.6 mph41%30.04 "Hg1 mi
11:25 AM70 °FHaze.3 mph46%30.07 "Hg1 mi
10:55 AM68 °FHaze.3 mph49%30.07 "Hg1 mi
10:25 AM66 °FClear.No wind52%30.07 "Hg1 mi
9:55 AM64 °FClear.No wind56%30.09 "Hg1 mi
9:25 AM59 °FClear.No wind68%30.07 "Hg1 mi
8:55 AM55 °FClear.No wind72%30.07 "Hg1 mi
8:25 AM50 °FFog.No wind88%30.04 "Hg1 mi
7:55 AM48 °FFog.No wind87%30.04 "Hg1 mi
7:25 AM48 °FFog.No wind87%30.04 "Hg1 mi
6:55 AM48 °FFog.No wind87%30.01 "Hg1 mi
6:25 AM48 °FFog.No wind87%30.01 "Hg1 mi
5:55 AM50 °FFog.No wind82%30.01 "Hg1 mi
5:00 AM50 °FFog.No wind88%29.98 "Hg1 mi
4:25 AM50 °FFog.No wind88%29.98 "Hg1 mi
3:55 AM52 °FFog.5 mph88%29.98 "Hg1 mi
3:25 AM52 °FFog.5 mph88%29.98 "Hg1 mi
2:55 AM52 °FFog.No wind94%29.98 "Hg1 mi
2:25 AM54 °FFog.No wind88%29.98 "Hg1 mi
1:55 AM55 °FFog.No wind82%29.98 "Hg1 mi
1:25 AM55 °FFog.No wind88%29.98 "Hg2 mi
12:55 AM57 °FFog.No wind82%29.98 "Hg2 mi
12:25 AM57 °FClear.No wind82%29.98 "Hg2 mi
11:55 PM
Nov 22
59 °FClear.No wind77%29.98 "Hg2 mi
11:25 PM59 °FClear.No wind77%29.98 "Hg2 mi
10:55 PM61 °FClear.No wind72%29.98 "Hg2 mi
10:25 PM63 °FClear.No wind68%29.98 "Hg2 mi
9:55 PM63 °FClear.No wind68%29.98 "Hg2 mi
9:25 PM64 °FClear.No wind64%29.98 "Hg2 mi
8:55 PM64 °FClear.No wind64%29.98 "Hg2 mi
7:55 PM66 °FClear.No wind56%29.95 "Hg2 mi
7:25 PM68 °FClear.No wind53%29.95 "Hg2 mi
7:00 PM68 °FClear.No wind53%29.95 "Hg2 mi
6:30 PM70 °FClear.No wind53%29.95 "Hg2 mi
6:00 PM70 °FHaze.No wind50%29.92 "Hg2 mi
Weather by CustomWeather, © 2014

See weather overviewHow to use our weather pages